Regional Weather Roundup
Issued by NWS

Home | Current Version | Previous Version | Text Only | Print | Product List | Glossary On
Versions: 1 2 3 4 5 6 7 8 9 10 11 12 13 14 15 16 17 18 19 20 21 22 23 24 25 26 27 28 29 30 31 32 33 34 35 36 37 38 39 40 41 42 43 44 45 46 47 48 49 50
000
ASCA44 KEWX 210620
RWRMX

LATIN AMERICA AND CARIBBEAN REGIONAL WEATHER ROUNDUP
NATIONAL WEATHER SERVICE AUSTIN/SAN ANTONIO TX
1200 AM CST TUE FEB 21 2017

NOTE: "FAIR" INDICATED FEW OR NO CLOUDS BELOW 12,000 FEET WITH NO
SIGNIFICANT WEATHER AND/OR OBSTRUCTIONS TO VISIBILITY.

BAJA CALIFORNIA

CITY           SKY/WX    TMP DP  RH WIND       PRES   REMARKS
LA PAZ         CLEAR     61  52  72 NE8       30.15S
MEXICALI       CLEAR     59  54  82 SE5       30.28R
S.J. DEL CABO  CLEAR     59  52  77 W9        30.12S
TIJUANA        CLEAR     54  48  82 CALM      30.31F

NORTHWESTERN MEXICO

CITY           SKY/WX    TMP DP  RH WIND       PRES   REMARKS
HERMOSILLO     CLEAR     63  55  77 CALM      30.18S

NORTHEASTERN MEXICO

CITY           SKY/WX    TMP DP  RH WIND       PRES   REMARKS
MONCLOVA         N/A    N/A N/A N/A MISG        N/A
MONTERREY      CLEAR     64  36  34 NW6       30.12R
REYNOSA          N/A    N/A N/A N/A MISG        N/A
SALTILLO       CLEAR     48  36  61 S7        30.32R WCI  45
CD. VICTORIA     N/A    N/A N/A N/A MISG        N/A

WESTERN MEXICO

CITY           SKY/WX    TMP DP  RH WIND       PRES   REMARKS
AGUASCALIENTES CLEAR     52  18  25 NE12      30.29R
COLIMA           N/A    N/A N/A N/A MISG        N/A
DEL BAJIO      CLEAR     54  27  35 N5        30.28S
GUADALAJARA    CLEAR     52  30  43 CALM      30.20R
MAZATLAN       CLEAR     64  55  72 CALM      30.05S
P. VALLARTA    MOCLDY    70  64  83 NE5       30.00F
URUAPAN          N/A    N/A N/A N/A MISG        N/A
ZACATECAS      CLEAR     37  12  35 CALM      30.36R

CENTRAL MEXICO

CITY           SKY/WX    TMP DP  RH WIND       PRES   REMARKS
CUERNAVACA       N/A    N/A N/A N/A MISG        N/A
MEXICO CITY    CLEAR     59  21  23 W7        30.31S
MORELIA        CLEAR     52  34  50 CALM      30.24S
POZA RICA        N/A    N/A N/A N/A MISG        N/A
QUERETARO      PTCLDY    54  39  58 E5        30.30R
S. LUIS POTOSI CLEAR     52  12  20 NW7       30.27R
TOLUCA         CLEAR     39  21  48 CALM      30.39S

SOUTHERN MEXICO

CITY           SKY/WX    TMP DP  RH WIND       PRES   REMARKS
ACAPULCO       PTCLDY    75  70  83 W8        29.91F
B. DE HUATULCO   N/A    N/A N/A N/A MISG        N/A
P. ESCONDIDO     N/A    N/A N/A N/A MISG        N/A
VERACRUZ       CLEAR     77  72  83 N17       29.96F

YUCATAN PENINSULA

CITY           SKY/WX    TMP DP  RH WIND       PRES   REMARKS
CAMPECHE         N/A    N/A N/A N/A MISG        N/A
CANCUN         MOCLDY    77  72  83 SE8       30.00S
CHETUMAL         N/A    N/A N/A N/A MISG        N/A
CD. DEL CARMEN   N/A    N/A N/A N/A MISG        N/A
COZUMEL        PTCLDY    77  72  83 SE7       29.97F
MERIDA         CLEAR     75  66  73 SE9       29.95S
MINATITLAN       N/A    N/A N/A N/A MISG        N/A
TAPACHULA      CLEAR     75  72  88 CALM      29.94S
TUX. GUTIERREZ CLEAR     70  59  68 S3        29.98S
VILLAHERMOSA   CLEAR     75  72  88 E5        29.89F

CENTRAL AMERICA

CITY           SKY/WX    TMP DP  RH WIND       PRES   REMARKS
MANAGUA        PTCLDY    77  68  73 SE9       29.92S

CARIBBEAN

CITY           SKY/WX    TMP DP  RH WIND       PRES   REMARKS
ARUBA          PTCLDY    75  68  78 VRB2      29.89F
CURACAO        PTCLDY    77  70  78 N10       29.89F
KINGSTON       PTCLDY    77  72  83 VRB2      29.94F
SAN JUAN       LGT RAIN  73  72  94 W6        29.88F
SANTO DOMINGO  PTCLDY    72  68  88 CALM      29.92S
ST. CROIX      PTCLDY    72  68  88 CALM      29.88
ST. MAARTEN    LGT RAIN  77  72  83 MISG      29.83F
ST. THOMAS     MOCLDY    77  72  83 W9        29.85F

$$





USA.gov is the U.S. government's official web portal to all federal, state and local government web resources and services.